Bonaire, Netherlands

2:36 AM AST on April 28, 2017 (GMT -0400)
Flamingo

Weather History for TNCB - January, 2013

Change the Weather History Date:

Thursday, January 17, 2013

  Actual Average Record
Temperature  
Mean Temperature 78 °F -  
Max Temperature 84 °F 84 °F 89 °F (2009)
Min Temperature 71 °F 77 °F 71 °F (2013)
Cooling Degree Days 12    
Growing Degree Days 28 (Base 50)    
Moisture  
Dew Point 72 °F    
Average Humidity 78    
Maximum Humidity 94    
Minimum Humidity 63    
Precipitation  
Precipitation 0.04 in - - ()
Sea Level Pressure  
Sea Level Pressure 29.95 in    
Wind  
Wind Speed 8 mph ()    
Max Wind Speed 17 mph    
Max Gust Speed -    
Visibility 8.2 miles    
Events Rain    
Averages and records for this station are not official NWS values.
T = Trace of Precipitation, MM = Missing Value Source: Averaged Metar Reports

Daily Weather History Graph

Daily Weather History Graph

Search for Another Location

Airport or City:

Trip Planner

Search our weather history database for the weather conditions in past years. The results will help you decide how hot, cold, wet, or windy it might be!

Date:

Astronomy

Jan. 17, 2013 Rise Set
Actual Time 6:58 AM AST 6:28 PM AST
Civil Twilight 6:35 AM AST 6:51 PM AST
Nautical Twilight 6:09 AM AST 7:17 PM AST
Astronomical Twilight 5:43 AM AST 7:42 PM AST
Moon 11:17 AM AST (1/17) 11:55 PM AST (1/17)
Length of Visible Light 12h 15m
Length of Day
11h 30m
Waxing Crescent, 37% of the Moon is Illuminated
Jan 17
Waxing Crescent
Jan 18
First Quarter
Jan 27
Full
Feb 3
Last Quarter
Feb 10
New

Hourly Weather History & Observations

Time (AST) Temp. Heat Index Dew Point Humidity Pressure Visibility Wind Dir Wind Speed Gust Speed Precip Events Conditions
12:00 AM 77.0 °F - 69.8 °F 78% 29.95 in - East 9.2 mph - N/A   Unknown
1:00 AM 75.2 °F - 69.8 °F 83% 29.92 in - East 5.8 mph - N/A   Unknown
2:00 AM 73.4 °F - 71.6 °F 94% 29.92 in - East 6.9 mph - N/A Rain Rain
3:00 AM 73.4 °F - 69.8 °F 88% 29.92 in - East 8.1 mph - N/A   Unknown
4:00 AM 73.4 °F - 69.8 °F 88% 29.92 in - East 6.9 mph - N/A   Unknown
5:00 AM 73 °F - 69 °F 84%  in - East 5.8 mph - -   Clear
5:00 AM 73.4 °F - 69.8 °F 88% 29.92 in - East 5.8 mph - N/A   Unknown
6:00 AM 71.6 °F - 68.0 °F 88% 29.95 in - East 4.6 mph - N/A   Unknown
7:00 AM 73.4 °F - 68.0 °F 83% 29.95 in - East 5.8 mph - N/A   Unknown
8:00 AM 78 °F - 72 °F 75% 30.00 in 22 mi East 8.1 mph - -   Partly Cloudy
8:00 AM 78.8 °F - 71.6 °F 78% 29.98 in 6.2 mi East 8.1 mph - N/A   Partly Cloudy
9:00 AM 80.6 °F 84.6 °F 71.6 °F 74% 30.01 in 6.2 mi East 13.8 mph - N/A   Partly Cloudy
10:00 AM 82.4 °F 87.2 °F 71.6 °F 70% 30.01 in 6.2 mi East 15.0 mph - N/A   Partly Cloudy
11:00 AM 82 °F - 71 °F 63% 30.02 in 25 mi ESE 15.0 mph - -   Partly Cloudy
11:00 AM 82.4 °F 87.2 °F 71.6 °F 70% 30.01 in 6.2 mi East 13.8 mph - N/A   Scattered Clouds
12:00 PM 84.2 °F 89.6 °F 71.6 °F 66% 29.98 in 6.2 mi ESE 15.0 mph - N/A   Partly Cloudy
1:00 PM 82.4 °F 87.2 °F 71.6 °F 70% 29.95 in 6.2 mi East 17.3 mph - N/A   Scattered Clouds
2:00 PM 83 °F - 74 °F 69%  in 6 mi ESE 12.7 mph - -   Clear
2:00 PM 82.4 °F 89.5 °F 75.2 °F 79% 29.92 in - North - - N/A   Unknown
3:00 PM 82.4 °F 89.5 °F 75.2 °F 79% 29.92 in 6.2 mi ESE 10.4 mph - N/A   Scattered Clouds
4:00 PM 82.4 °F 89.5 °F 75.2 °F 79% 29.92 in 6.2 mi ESE 11.5 mph - N/A   Scattered Clouds
5:00 PM 82 °F - 73 °F 69% 29.93 in 25 mi East 12.7 mph - -   Partly Cloudy
5:00 PM 80.6 °F 85.4 °F 73.4 °F 79% 29.92 in 6.2 mi East 12.7 mph - N/A   Scattered Clouds
6:00 PM 80.6 °F 85.4 °F 73.4 °F 79% 29.92 in - North - - N/A   Unknown
7:00 PM 78.8 °F - 73.4 °F 83% 29.92 in - North - - N/A   Unknown
8:00 PM 79 °F - 73 °F 78% 29.97 in 19 mi East 13.8 mph - -   Partly Cloudy
9:00 PM 78.8 °F - 71.6 °F 78% 29.98 in - North - - N/A   Unknown
10:00 PM 78.8 °F - 71.6 °F 78% 29.98 in - North - - N/A   Unknown
11:00 PM 78 °F - 70 °F 70%  in 19 mi East 9.2 mph - -   Clear
11:00 PM 78.8 °F - 69.8 °F 74% 29.98 in 6.2 mi East 10.4 mph - N/A   Scattered Clouds